contact:dominique.lefevre@mio.osupytheas.fr, maurice.libes@osupytheas.fr, didier.mallarino@osupytheas.fr
Project:EMSO http://www.emso-fr.org/EMSO-France
Depth: 2436.0 m
Title:EMSO Ligure Ouest : Data MII capteur CSTAR
DateTime,Latitude,Longitude,Instrument_Serial,Reference_Counts,Signal_Counts,Corrected_Signal_raw_counts,Calculated_Beam_c_inverse_meters,Internal_thermistor_counts
DateTime,Latitude,Longitude,Instrument_Serial,Reference_Counts,Signal_Counts,Corrected_Signal_raw_counts,Calculated_Beam_c_inverse_meters,Internal_thermistor_counts
2020-10-01T00:00:53,42.805,6.029,CST-1368DR,5971,8357,15096,0.135,550
2020-10-01T00:03:55,42.805,6.029,CST-1368DR,5971,8356,15095,0.136,551
2020-10-01T00:06:57,42.805,6.029,CST-1368DR,5971,8357,15096,0.135,551
2020-10-01T00:09:58,42.805,6.029,CST-1368DR,5971,8355,15093,0.136,551
2020-10-01T00:13:00,42.805,6.029,CST-1368DR,5971,8356,15094,0.136,551
2020-10-01T00:16:01,42.805,6.029,CST-1368DR,5971,8355,15093,0.136,551
2020-10-01T00:19:03,42.805,6.029,CST-1368DR,5971,8354,15091,0.137,551
2020-10-01T00:22:04,42.805,6.029,CST-1368DR,5971,8354,15092,0.137,551
2020-10-01T00:25:06,42.805,6.029,CST-1368DR,5971,8355,15092,0.137,551
2020-10-01T00:28:08,42.805,6.029,CST-1368DR,5971,8355,15092,0.137,551
2020-10-01T00:31:09,42.805,6.029,CST-1368DR,5970,8355,15096,0.135,551
2020-10-01T00:34:11,42.805,6.029,CST-1368DR,5970,8355,15095,0.136,551
2020-10-01T00:37:12,42.805,6.029,CST-1368DR,5970,8353,15092,0.137,551
2020-10-01T00:40:14,42.805,6.029,CST-1368DR,5970,8355,15095,0.136,551
2020-10-01T00:43:16,42.805,6.029,CST-1368DR,5970,8355,15095,0.136,551
2020-10-01T00:46:17,42.805,6.029,CST-1368DR,5970,8355,15095,0.136,551
2020-10-01T00:49:19,42.805,6.029,CST-1368DR,5970,8355,15095,0.136,551
2020-10-01T00:52:20,42.805,6.029,CST-1368DR,5970,8354,15093,0.136,551
2020-10-01T00:55:22,42.805,6.029,CST-1368DR,5970,8354,15094,0.136,551
2020-10-01T00:58:23,42.805,6.029,CST-1368DR,5970,8353,15092,0.137,551
2020-10-01T01:01:25,42.805,6.029,CST-1368DR,5970,8354,15094,0.136,551
2020-10-01T01:04:27,42.805,6.029,CST-1368DR,5970,8354,15093,0.136,551
2020-10-01T01:07:28,42.805,6.029,CST-1368DR,5970,8354,15094,0.136,551
2020-10-01T01:10:30,42.805,6.029,CST-1368DR,5969,8355,15097,0.135,551
2020-10-01T01:13:31,42.805,6.029,CST-1368DR,5969,8355,15097,0.135,551
2020-10-01T01:16:33,42.805,6.029,CST-1368DR,5969,8355,15098,0.135,551
2020-10-01T01:19:34,42.805,6.029,CST-1368DR,5969,8355,15097,0.135,551
2020-10-01T01:22:36,42.805,6.029,CST-1368DR,5969,8354,15096,0.135,551
2020-10-01T01:25:38,42.805,6.029,CST-1368DR,5969,8354,15096,0.135,551
2020-10-01T01:28:39,42.805,6.029,CST-1368DR,5969,8354,15095,0.136,551
2020-10-01T01:31:41,42.805,6.029,CST-1368DR,5969,8353,15095,0.136,551
2020-10-01T01:34:42,42.805,6.029,CST-1368DR,5969,8352,15092,0.137,551
2020-10-01T01:37:44,42.805,6.029,CST-1368DR,5969,8350,15089,0.137,551
2020-10-01T01:40:46,42.805,6.029,CST-1368DR,5969,8354,15095,0.136,551
2020-10-01T01:43:47,42.805,6.029,CST-1368DR,5969,8353,15094,0.136,551
2020-10-01T01:46:49,42.805,6.029,CST-1368DR,5969,8353,15094,0.136,551
2020-10-01T01:49:50,42.805,6.029,CST-1368DR,5969,8353,15095,0.136,551
2020-10-01T01:52:52,42.805,6.029,CST-1368DR,5969,8353,15095,0.136,551
2020-10-01T01:55:53,42.805,6.029,CST-1368DR,5968,8354,15097,0.135,551
2020-10-01T01:58:55,42.805,6.029,CST-1368DR,5968,8352,15095,0.136,551
2020-10-01T02:01:57,42.805,6.029,CST-1368DR,5968,8351,15092,0.137,551
2020-10-01T02:04:58,42.805,6.029,CST-1368DR,5968,8352,15095,0.136,551
2020-10-01T02:08:00,42.805,6.029,CST-1368DR,5968,8353,15097,0.135,551
2020-10-01T02:11:01,42.805,6.029,CST-1368DR,5968,8354,15097,0.135,551
2020-10-01T02:14:03,42.805,6.029,CST-1368DR,5968,8352,15095,0.136,551
2020-10-01T02:17:05,42.805,6.029,CST-1368DR,5968,8352,15095,0.136,551
2020-10-01T02:20:06,42.805,6.029,CST-1368DR,5968,8351,15093,0.136,551
2020-10-01T02:23:08,42.805,6.029,CST-1368DR,5968,8352,15094,0.136,551
2020-10-01T02:26:09,42.805,6.029,CST-1368DR,5968,8351,15093,0.136,551
2020-10-01T02:29:11,42.805,6.029,CST-1368DR,5968,8353,15096,0.135,551
2020-10-01T02:32:12,42.805,6.029,CST-1368DR,5968,8353,15096,0.135,551
2020-10-01T02:35:14,42.805,6.029,CST-1368DR,5968,8352,15095,0.136,551
2020-10-01T02:38:16,42.805,6.029,CST-1368DR,5968,8353,15096,0.135,551
2020-10-01T02:41:17,42.805,6.029,CST-1368DR,5968,8353,15096,0.135,551
2020-10-01T02:44:19,42.805,6.029,CST-1368DR,5967,8349,15092,0.137,551
2020-10-01T02:47:20,42.805,6.029,CST-1368DR,5967,8352,15097,0.135,551
2020-10-01T02:50:22,42.805,6.029,CST-1368DR,5967,8350,15093,0.136,551
2020-10-01T02:53:23,42.805,6.029,CST-1368DR,5967,8350,15094,0.136,551
2020-10-01T02:56:25,42.805,6.029,CST-1368DR,5967,8351,15094,0.136,551
2020-10-01T02:59:27,42.805,6.029,CST-1368DR,5967,8350,15094,0.136,551
2020-10-01T03:02:28,42.805,6.029,CST-1368DR,5967,8352,15096,0.135,551
2020-10-01T03:05:30,42.805,6.029,CST-1368DR,5967,8345,15083,0.139,551
2020-10-01T03:08:31,42.805,6.029,CST-1368DR,5967,8351,15095,0.136,551
2020-10-01T03:11:33,42.805,6.029,CST-1368DR,5967,8350,15093,0.136,551
2020-10-01T03:14:35,42.805,6.029,CST-1368DR,5967,8350,15094,0.136,551
2020-10-01T03:17:36,42.805,6.029,CST-1368DR,5967,8351,15096,0.135,550
2020-10-01T03:20:38,42.805,6.029,CST-1368DR,5967,8350,15094,0.136,551
2020-10-01T03:23:39,42.805,6.029,CST-1368DR,5967,8351,15095,0.136,551
2020-10-01T03:26:41,42.805,6.029,CST-1368DR,5967,8351,15094,0.136,551
2020-10-01T03:29:42,42.805,6.029,CST-1368DR,5966,8350,15096,0.135,551
2020-10-01T03:32:44,42.805,6.029,CST-1368DR,5966,8350,15096,0.135,551
2020-10-01T03:35:46,42.805,6.029,CST-1368DR,5966,8349,15094,0.136,551
2020-10-01T03:38:47,42.805,6.029,CST-1368DR,5966,8350,15096,0.135,551
2020-10-01T03:41:49,42.805,6.029,CST-1368DR,5966,8351,15097,0.135,551
2020-10-01T03:44:50,42.805,6.029,CST-1368DR,5966,8350,15095,0.136,551
2020-10-01T03:47:52,42.805,6.029,CST-1368DR,5966,8350,15096,0.135,551
2020-10-01T03:50:54,42.805,6.029,CST-1368DR,5966,8350,15095,0.136,551
2020-10-01T03:53:55,42.805,6.029,CST-1368DR,5966,8350,15095,0.136,551
2020-10-01T03:56:57,42.805,6.029,CST-1368DR,5966,8350,15096,0.135,551
2020-10-01T03:59:58,42.805,6.029,CST-1368DR,5966,8350,15095,0.136,551
2020-10-01T04:03:00,42.805,6.029,CST-1368DR,5966,8344,15085,0.138,551
2020-10-01T04:06:01,42.805,6.029,CST-1368DR,5966,8350,15095,0.136,551
2020-10-01T04:09:03,42.805,6.029,CST-1368DR,5966,8349,15093,0.136,551
2020-10-01T04:12:05,42.805,6.029,CST-1368DR,5966,8350,15095,0.136,551
2020-10-01T04:15:06,42.805,6.029,CST-1368DR,5966,8349,15094,0.136,551
2020-10-01T04:18:08,42.805,6.029,CST-1368DR,5966,8349,15093,0.136,551
2020-10-01T04:21:09,42.805,6.029,CST-1368DR,5965,8350,15097,0.135,551
2020-10-01T04:24:11,42.805,6.029,CST-1368DR,5965,8349,15096,0.135,551
2020-10-01T04:27:12,42.805,6.029,CST-1368DR,5965,8349,15095,0.136,551
2020-10-01T04:30:14,42.805,6.029,CST-1368DR,5965,8348,15094,0.136,551
2020-10-01T04:33:16,42.805,6.029,CST-1368DR,5965,8350,15097,0.135,551
2020-10-01T04:36:17,42.805,6.029,CST-1368DR,5965,8350,15097,0.135,551
2020-10-01T04:39:19,42.805,6.029,CST-1368DR,5965,8348,15094,0.136,551
2020-10-01T04:42:20,42.805,6.029,CST-1368DR,5965,8347,15093,0.136,551
2020-10-01T04:45:22,42.805,6.029,CST-1368DR,5965,8348,15095,0.136,551
2020-10-01T04:48:24,42.805,6.029,CST-1368DR,5965,8346,15090,0.137,551
2020-10-01T04:51:25,42.805,6.029,CST-1368DR,5965,8348,15095,0.136,551
2020-10-01T04:54:27,42.805,6.029,CST-1368DR,5965,8349,15096,0.135,551
2020-10-01T04:57:28,42.805,6.029,CST-1368DR,5965,8348,15095,0.136,551
2020-10-01T05:00:30,42.805,6.029,CST-1368DR,5965,8348,15095,0.136,551
2020-10-01T05:03:31,42.805,6.029,CST-1368DR,5964,8347,15094,0.136,551
2020-10-01T05:06:33,42.805,6.029,CST-1368DR,5964,8347,15095,0.136,551
2020-10-01T05:09:35,42.805,6.029,CST-1368DR,5964,8347,15096,0.135,551
2020-10-01T05:12:36,42.805,6.029,CST-1368DR,5964,8346,15094,0.136,551
2020-10-01T05:15:38,42.805,6.029,CST-1368DR,5964,8348,15097,0.135,551
2020-10-01T05:18:39,42.805,6.029,CST-1368DR,5964,8348,15097,0.135,551
2020-10-01T05:21:41,42.805,6.029,CST-1368DR,5964,8348,15096,0.135,551
2020-10-01T05:24:43,42.805,6.029,CST-1368DR,5964,8347,15095,0.136,551
2020-10-01T05:27:44,42.805,6.029,CST-1368DR,5964,8348,15097,0.135,551
2020-10-01T05:30:46,42.805,6.029,CST-1368DR,5964,8348,15097,0.135,551
2020-10-01T05:33:47,42.805,6.029,CST-1368DR,5964,8347,15096,0.135,551
2020-10-01T05:36:49,42.805,6.029,CST-1368DR,5964,8347,15095,0.136,551
2020-10-01T05:39:50,42.805,6.029,CST-1368DR,5964,8347,15096,0.135,551
2020-10-01T05:42:52,42.805,6.029,CST-1368DR,5964,8347,15095,0.136,551
2020-10-01T05:45:54,42.805,6.029,CST-1368DR,5964,8347,15095,0.136,551
2020-10-01T05:48:55,42.805,6.029,CST-1368DR,5964,8347,15095,0.136,551
2020-10-01T05:51:57,42.805,6.029,CST-1368DR,5963,8346,15096,0.135,551
2020-10-01T05:54:58,42.805,6.029,CST-1368DR,5963,8347,15098,0.135,551
2020-10-01T05:58:00,42.805,6.029,CST-1368DR,5963,8347,15097,0.135,551
2020-10-01T06:01:01,42.805,6.029,CST-1368DR,5963,8345,15094,0.136,551
2020-10-01T06:04:03,42.805,6.029,CST-1368DR,5963,8346,15096,0.135,551
2020-10-01T06:07:05,42.805,6.029,CST-1368DR,5963,8347,15098,0.135,551
2020-10-01T06:10:06,42.805,6.029,CST-1368DR,5963,8345,15094,0.136,551
2020-10-01T06:13:08,42.805,6.029,CST-1368DR,5963,8346,15095,0.136,551
2020-10-01T06:16:09,42.805,6.029,CST-1368DR,5963,8347,15098,0.135,551
2020-10-01T06:19:11,42.805,6.029,CST-1368DR,5963,8346,15096,0.135,551
2020-10-01T06:22:13,42.805,6.029,CST-1368DR,5963,8346,15095,0.136,551
2020-10-01T06:25:14,42.805,6.029,CST-1368DR,5963,8344,15093,0.136,551
2020-10-01T06:28:16,42.805,6.029,CST-1368DR,5963,8347,15097,0.135,551
2020-10-01T06:31:17,42.805,6.029,CST-1368DR,5963,8345,15093,0.136,551
2020-10-01T06:34:19,42.805,6.029,CST-1368DR,5963,8333,15071,0.142,551
2020-10-01T06:37:20,42.805,6.029,CST-1368DR,5962,8341,15088,0.138,551
2020-10-01T06:40:22,42.805,6.029,CST-1368DR,5963,8345,15094,0.136,551
2020-10-01T06:43:24,42.805,6.029,CST-1368DR,5962,8346,15097,0.135,551
2020-10-01T06:46:25,42.805,6.029,CST-1368DR,5962,8344,15094,0.136,550
2020-10-01T06:49:27,42.805,6.029,CST-1368DR,5962,8345,15096,0.135,551
2020-10-01T06:52:28,42.805,6.029,CST-1368DR,5962,8346,15097,0.135,551
2020-10-01T06:55:30,42.805,6.029,CST-1368DR,5962,8346,15098,0.135,551
2020-10-01T06:58:32,42.805,6.029,CST-1368DR,5962,8344,15095,0.136,551
2020-10-01T07:01:33,42.805,6.029,CST-1368DR,5962,8344,15095,0.136,551
2020-10-01T07:04:35,42.805,6.029,CST-1368DR,5962,8344,15095,0.136,551
2020-10-01T07:07:36,42.805,6.029,CST-1368DR,5962,8344,15094,0.136,551
2020-10-01T07:10:38,42.805,6.029,CST-1368DR,5962,8343,15093,0.136,551
2020-10-01T07:13:39,42.805,6.029,CST-1368DR,5962,8344,15095,0.136,551
2020-10-01T07:16:41,42.805,6.029,CST-1368DR,5962,8345,15095,0.136,551
2020-10-01T07:19:43,42.805,6.029,CST-1368DR,5962,8343,15093,0.136,551
2020-10-01T07:22:44,42.805,6.029,CST-1368DR,5962,8345,15095,0.136,551
2020-10-01T07:25:46,42.805,6.029,CST-1368DR,5961,8344,15096,0.135,551
2020-10-01T07:28:47,42.805,6.029,CST-1368DR,5961,8344,15096,0.135,551
2020-10-01T07:31:49,42.805,6.029,CST-1368DR,5961,8343,15095,0.136,551
2020-10-01T07:34:51,42.805,6.029,CST-1368DR,5961,8344,15096,0.135,550
2020-10-01T07:37:52,42.805,6.029,CST-1368DR,5961,8341,15091,0.137,551
2020-10-01T07:40:54,42.805,6.029,CST-1368DR,5961,8344,15096,0.135,551
2020-10-01T07:43:55,42.805,6.029,CST-1368DR,5961,8344,15096,0.135,551
2020-10-01T07:46:57,42.805,6.029,CST-1368DR,5961,8343,15095,0.136,551
2020-10-01T07:49:58,42.805,6.029,CST-1368DR,5961,8343,15096,0.135,551
2020-10-01T07:53:00,42.805,6.029,CST-1368DR,5961,8343,15095,0.136,551
2020-10-01T07:56:02,42.805,6.029,CST-1368DR,5961,8343,15096,0.135,551
2020-10-01T07:59:03,42.805,6.029,CST-1368DR,5961,8342,15092,0.137,551
2020-10-01T08:02:05,42.805,6.029,CST-1368DR,5961,8342,15093,0.136,551
2020-10-01T08:05:06,42.805,6.029,CST-1368DR,5961,8343,15094,0.136,551
2020-10-01T08:08:08,42.805,6.029,CST-1368DR,5961,8343,15095,0.136,551
2020-10-01T08:11:10,42.805,6.029,CST-1368DR,5961,8343,15094,0.136,551
2020-10-01T08:14:11,42.805,6.029,CST-1368DR,5961,8341,15091,0.137,551
2020-10-01T08:17:13,42.805,6.029,CST-1368DR,5961,8342,15093,0.136,550
2020-10-01T08:20:14,42.805,6.029,CST-1368DR,5961,8341,15091,0.137,551
2020-10-01T08:23:16,42.805,6.029,CST-1368DR,5961,8342,15093,0.136,551
2020-10-01T08:26:17,42.805,6.029,CST-1368DR,5960,8342,15095,0.136,551
2020-10-01T08:29:19,42.805,6.029,CST-1368DR,5961,8342,15093,0.136,551
2020-10-01T08:32:21,42.805,6.029,CST-1368DR,5960,8343,15097,0.135,551
2020-10-01T08:35:22,42.805,6.029,CST-1368DR,5960,8341,15093,0.136,551
2020-10-01T08:38:24,42.805,6.029,CST-1368DR,5960,8343,15097,0.135,551
2020-10-01T08:41:25,42.805,6.029,CST-1368DR,5960,8342,15095,0.136,551
2020-10-01T08:44:27,42.805,6.029,CST-1368DR,5960,8341,15094,0.136,551
2020-10-01T08:47:28,42.805,6.029,CST-1368DR,5960,8342,15095,0.136,551
2020-10-01T08:50:30,42.805,6.029,CST-1368DR,5960,8340,15092,0.137,551
2020-10-01T08:53:32,42.805,6.029,CST-1368DR,5960,8342,15095,0.136,551
2020-10-01T08:56:33,42.805,6.029,CST-1368DR,5960,8342,15095,0.136,551
2020-10-01T08:59:35,42.805,6.029,CST-1368DR,5960,8342,15095,0.136,551
2020-10-01T09:02:36,42.805,6.029,CST-1368DR,5960,8341,15094,0.136,551
2020-10-01T09:05:38,42.805,6.029,CST-1368DR,5960,8341,15094,0.136,551
2020-10-01T09:08:40,42.805,6.029,CST-1368DR,5960,8342,15095,0.136,551
2020-10-01T09:11:41,42.805,6.029,CST-1368DR,5960,8341,15094,0.136,551
2020-10-01T09:14:43,42.805,6.029,CST-1368DR,5960,8341,15094,0.136,551
2020-10-01T09:17:44,42.805,6.029,CST-1368DR,5960,8342,15095,0.136,551
2020-10-01T09:20:46,42.805,6.029,CST-1368DR,5960,8341,15093,0.136,551
2020-10-01T09:23:47,42.805,6.029,CST-1368DR,5960,8342,15095,0.136,551
2020-10-01T09:26:49,42.805,6.029,CST-1368DR,5960,8340,15092,0.137,551
2020-10-01T09:29:51,42.805,6.029,CST-1368DR,5959,8338,15090,0.137,551
2020-10-01T09:32:52,42.805,6.029,CST-1368DR,5959,8340,15094,0.136,551
2020-10-01T09:35:54,42.805,6.029,CST-1368DR,5959,8341,15096,0.135,551
2020-10-01T09:38:55,42.805,6.029,CST-1368DR,5959,8340,15095,0.136,551
2020-10-01T09:41:57,42.805,6.029,CST-1368DR,5959,8341,15096,0.135,551
2020-10-01T09:44:58,42.805,6.029,CST-1368DR,5959,8341,15096,0.135,551
2020-10-01T09:48:00,42.805,6.029,CST-1368DR,5959,8340,15095,0.136,551
2020-10-01T09:51:02,42.805,6.029,CST-1368DR,5959,8339,15092,0.137,551
2020-10-01T09:54:03,42.805,6.029,CST-1368DR,5959,8341,15096,0.135,551
2020-10-01T09:57:05,42.805,6.029,CST-1368DR,5959,8340,15094,0.136,551
2020-10-01T10:00:06,42.805,6.029,CST-1368DR,5959,8340,15094,0.136,551
2020-10-01T10:03:08,42.805,6.029,CST-1368DR,5959,8333,15081,0.139,551
2020-10-01T10:06:10,42.805,6.029,CST-1368DR,5959,8339,15092,0.137,551
2020-10-01T10:09:11,42.805,6.029,CST-1368DR,5959,8340,15094,0.136,551
2020-10-01T10:12:13,42.805,6.029,CST-1368DR,5959,8341,15096,0.135,551
2020-10-01T10:15:14,42.805,6.029,CST-1368DR,5959,8340,15094,0.136,551
2020-10-01T10:18:16,42.805,6.029,CST-1368DR,5959,8341,15096,0.135,551
2020-10-01T10:21:17,42.805,6.029,CST-1368DR,5959,8337,15089,0.137,551
2020-10-01T10:24:19,42.805,6.029,CST-1368DR,5959,8340,15095,0.136,551
2020-10-01T10:27:21,42.805,6.029,CST-1368DR,5959,8340,15094,0.136,551
2020-10-01T10:30:22,42.805,6.029,CST-1368DR,5959,8340,15094,0.136,551
2020-10-01T10:33:24,42.805,6.029,CST-1368DR,5959,8340,15094,0.136,551
2020-10-01T10:36:25,42.805,6.029,CST-1368DR,5958,8340,15097,0.135,551
2020-10-01T10:39:27,42.805,6.029,CST-1368DR,5959,8340,15094,0.136,550
2020-10-01T10:42:29,42.805,6.029,CST-1368DR,5958,8339,15095,0.136,551
2020-10-01T10:45:30,42.805,6.029,CST-1368DR,5958,8339,15095,0.136,551
2020-10-01T10:48:32,42.805,6.029,CST-1368DR,5958,8339,15095,0.136,550
2020-10-01T10:51:33,42.805,6.029,CST-1368DR,5958,8340,15096,0.135,551
2020-10-01T10:54:35,42.805,6.029,CST-1368DR,5958,8340,15096,0.135,551
2020-10-01T10:57:36,42.805,6.029,CST-1368DR,5958,8339,15095,0.136,551
2020-10-01T11:00:38,42.805,6.029,CST-1368DR,5958,8339,15094,0.136,551
2020-10-01T11:03:40,42.805,6.029,CST-1368DR,5958,8339,15094,0.136,551
2020-10-01T11:06:41,42.805,6.029,CST-1368DR,5958,8339,15094,0.136,551
2020-10-01T11:09:43,42.805,6.029,CST-1368DR,5958,8338,15094,0.136,550
2020-10-01T11:12:44,42.805,6.029,CST-1368DR,5958,8339,15095,0.136,551
2020-10-01T11:15:46,42.805,6.029,CST-1368DR,5958,8339,15095,0.136,551
2020-10-01T11:18:48,42.805,6.029,CST-1368DR,5958,8338,15094,0.136,551
2020-10-01T11:21:49,42.805,6.029,CST-1368DR,5958,8338,15093,0.136,551
2020-10-01T11:24:51,42.805,6.029,CST-1368DR,5958,8338,15093,0.136,551
2020-10-01T11:27:52,42.805,6.029,CST-1368DR,5958,8338,15093,0.136,551
2020-10-01T11:30:54,42.805,6.029,CST-1368DR,5958,8338,15093,0.136,551
2020-10-01T11:33:55,42.805,6.029,CST-1368DR,5958,8338,15092,0.137,551
2020-10-01T11:36:57,42.805,6.029,CST-1368DR,5958,8337,15091,0.137,551
2020-10-01T11:39:59,42.805,6.029,CST-1368DR,5957,8337,15094,0.136,551
2020-10-01T11:43:00,42.805,6.029,CST-1368DR,5957,8336,15092,0.137,551
2020-10-01T11:46:02,42.805,6.029,CST-1368DR,5957,8337,15094,0.136,551
2020-10-01T11:49:03,42.805,6.029,CST-1368DR,5957,8337,15094,0.136,551
2020-10-01T11:52:05,42.805,6.029,CST-1368DR,5957,8337,15094,0.136,551
2020-10-01T11:55:06,42.805,6.029,CST-1368DR,5957,8337,15094,0.136,551
2020-10-01T11:58:08,42.805,6.029,CST-1368DR,5957,8337,15094,0.136,551
2020-10-01T12:01:10,42.805,6.029,CST-1368DR,5957,8337,15093,0.136,551
2020-10-01T12:04:11,42.805,6.029,CST-1368DR,5957,8338,15095,0.136,551
2020-10-01T12:07:13,42.805,6.029,CST-1368DR,5957,8335,15089,0.137,551
2020-10-01T12:10:14,42.805,6.029,CST-1368DR,5957,8336,15092,0.137,551
2020-10-01T12:13:16,42.805,6.029,CST-1368DR,5957,8337,15093,0.136,551
2020-10-01T12:16:18,42.805,6.029,CST-1368DR,5957,8336,15092,0.137,551
2020-10-01T12:19:19,42.805,6.029,CST-1368DR,5957,8334,15089,0.137,551
2020-10-01T12:22:21,42.805,6.029,CST-1368DR,5957,8337,15093,0.136,551
2020-10-01T12:25:22,42.805,6.029,CST-1368DR,5957,8336,15092,0.137,551
2020-10-01T12:28:24,42.805,6.029,CST-1368DR,5957,8336,15092,0.137,551
2020-10-01T12:31:25,42.805,6.029,CST-1368DR,5957,8336,15092,0.137,551
2020-10-01T12:34:27,42.805,6.029,CST-1368DR,5957,8336,15092,0.137,550
2020-10-01T12:37:29,42.805,6.029,CST-1368DR,5957,8337,15093,0.136,551
2020-10-01T12:40:30,42.805,6.029,CST-1368DR,5956,8336,15095,0.136,551
2020-10-01T12:43:32,42.805,6.029,CST-1368DR,5956,8336,15094,0.136,551
2020-10-01T12:46:33,42.805,6.029,CST-1368DR,5956,8336,15095,0.136,551
2020-10-01T12:49:35,42.805,6.029,CST-1368DR,5956,8336,15094,0.136,551
2020-10-01T12:52:37,42.805,6.029,CST-1368DR,5956,8336,15094,0.136,551
2020-10-01T12:55:38,42.805,6.029,CST-1368DR,5956,8336,15094,0.136,551
2020-10-01T12:58:40,42.805,6.029,CST-1368DR,5956,8336,15094,0.136,551
2020-10-01T13:01:41,42.805,6.029,CST-1368DR,5956,8335,15093,0.136,551
2020-10-01T13:04:43,42.805,6.029,CST-1368DR,5956,8334,15091,0.137,551
2020-10-01T13:07:44,42.805,6.029,CST-1368DR,5956,8336,15094,0.136,551
2020-10-01T13:10:46,42.805,6.029,CST-1368DR,5956,8336,15094,0.136,551
2020-10-01T13:13:48,42.805,6.029,CST-1368DR,5956,8335,15093,0.136,551
2020-10-01T13:16:49,42.805,6.029,CST-1368DR,5956,8333,15089,0.137,551
2020-10-01T13:19:51,42.805,6.029,CST-1368DR,5956,8335,15093,0.136,551
2020-10-01T13:22:52,42.805,6.029,CST-1368DR,5956,8336,15094,0.136,551
2020-10-01T13:25:54,42.805,6.029,CST-1368DR,5956,8336,15094,0.136,551
2020-10-01T13:28:56,42.805,6.029,CST-1368DR,5956,8335,15093,0.136,551
2020-10-01T13:31:57,42.805,6.029,CST-1368DR,5956,8335,15093,0.136,551
2020-10-01T13:34:59,42.805,6.029,CST-1368DR,5956,8335,15093,0.136,551
2020-10-01T13:38:00,42.805,6.029,CST-1368DR,5956,8335,15093,0.136,551
2020-10-01T13:41:02,42.805,6.029,CST-1368DR,5956,8335,15093,0.136,551
2020-10-01T13:44:03,42.805,6.029,CST-1368DR,5956,8335,15092,0.137,551
2020-10-01T13:47:05,42.805,6.029,CST-1368DR,5956,8335,15092,0.137,551
2020-10-01T13:50:07,42.805,6.029,CST-1368DR,5956,8335,15092,0.137,551
2020-10-01T13:53:08,42.805,6.029,CST-1368DR,5956,8335,15092,0.137,551
2020-10-01T13:56:10,42.805,6.029,CST-1368DR,5955,8335,15095,0.136,551
2020-10-01T13:59:11,42.805,6.029,CST-1368DR,5955,8335,15095,0.136,551
2020-10-01T14:02:13,42.805,6.029,CST-1368DR,5955,8333,15090,0.137,551
2020-10-01T14:05:14,42.805,6.029,CST-1368DR,5955,8335,15094,0.136,551
2020-10-01T14:08:16,42.805,6.029,CST-1368DR,5955,8335,15094,0.136,550
2020-10-01T14:11:18,42.805,6.029,CST-1368DR,5955,8334,15093,0.136,551
2020-10-01T14:14:19,42.805,6.029,CST-1368DR,5955,8335,15094,0.136,551
2020-10-01T14:17:21,42.805,6.029,CST-1368DR,5955,8334,15093,0.136,551
2020-10-01T14:20:22,42.805,6.029,CST-1368DR,5955,8334,15093,0.136,551
2020-10-01T14:23:24,42.805,6.029,CST-1368DR,5955,8334,15093,0.136,551
2020-10-01T14:26:26,42.805,6.029,CST-1368DR,5955,8335,15095,0.136,551
2020-10-01T14:29:27,42.805,6.029,CST-1368DR,5955,8335,15095,0.136,551
2020-10-01T14:32:29,42.805,6.029,CST-1368DR,5955,8335,15094,0.136,551
2020-10-01T14:35:30,42.805,6.029,CST-1368DR,5955,8334,15094,0.136,551
2020-10-01T14:38:32,42.805,6.029,CST-1368DR,5955,8332,15090,0.137,551
2020-10-01T14:41:33,42.805,6.029,CST-1368DR,5955,8335,15094,0.136,551
2020-10-01T14:44:35,42.805,6.029,CST-1368DR,5955,8335,15094,0.136,551
2020-10-01T14:47:37,42.805,6.029,CST-1368DR,5955,8334,15093,0.136,551
2020-10-01T14:50:38,42.805,6.029,CST-1368DR,5955,8334,15094,0.136,551
2020-10-01T14:53:40,42.805,6.029,CST-1368DR,5955,8334,15092,0.137,551
2020-10-01T14:56:41,42.805,6.029,CST-1368DR,5955,8334,15093,0.136,551
2020-10-01T14:59:43,42.805,6.029,CST-1368DR,5955,8332,15090,0.137,551
2020-10-01T15:02:45,42.805,6.029,CST-1368DR,5955,8331,15088,0.138,551
2020-10-01T15:05:46,42.805,6.029,CST-1368DR,5955,8334,15094,0.136,551
2020-10-01T15:08:48,42.805,6.029,CST-1368DR,5955,8334,15093,0.136,551
2020-10-01T15:11:49,42.805,6.029,CST-1368DR,5955,8333,15092,0.137,551
2020-10-01T15:14:51,42.805,6.029,CST-1368DR,5954,8334,15096,0.135,551
2020-10-01T15:17:52,42.805,6.029,CST-1368DR,5954,8334,15096,0.135,551
2020-10-01T15:20:54,42.805,6.029,CST-1368DR,5954,8334,15096,0.135,551
2020-10-01T15:23:56,42.805,6.029,CST-1368DR,5954,8333,15094,0.136,551
2020-10-01T15:26:57,42.805,6.029,CST-1368DR,5954,8334,15095,0.136,551
2020-10-01T15:29:59,42.805,6.029,CST-1368DR,5954,8334,15095,0.136,551
2020-10-01T15:33:00,42.805,6.029,CST-1368DR,5954,8334,15095,0.136,551
2020-10-01T15:36:02,42.805,6.029,CST-1368DR,5954,8334,15095,0.136,551
2020-10-01T15:39:04,42.805,6.029,CST-1368DR,5954,8334,15095,0.136,551
2020-10-01T15:42:05,42.805,6.029,CST-1368DR,5954,8333,15093,0.136,551
2020-10-01T15:45:07,42.805,6.029,CST-1368DR,5954,8334,15095,0.136,551
2020-10-01T15:48:08,42.805,6.029,CST-1368DR,5954,8333,15094,0.136,551
2020-10-01T15:51:10,42.805,6.029,CST-1368DR,5954,8333,15093,0.136,550
2020-10-01T15:54:11,42.805,6.029,CST-1368DR,5954,8333,15093,0.136,551
2020-10-01T15:57:13,42.805,6.029,CST-1368DR,5954,8333,15094,0.136,551
2020-10-01T16:00:15,42.805,6.029,CST-1368DR,5954,8333,15094,0.136,551
2020-10-01T16:03:16,42.805,6.029,CST-1368DR,5954,8333,15093,0.136,551
2020-10-01T16:06:18,42.805,6.029,CST-1368DR,5954,8333,15093,0.136,551
2020-10-01T16:09:19,42.805,6.029,CST-1368DR,5954,8333,15094,0.136,551
2020-10-01T16:12:21,42.805,6.029,CST-1368DR,5954,8332,15091,0.137,550
2020-10-01T16:15:22,42.805,6.029,CST-1368DR,5954,8333,15094,0.136,551
2020-10-01T16:18:24,42.805,6.029,CST-1368DR,5954,8333,15094,0.136,551
2020-10-01T16:21:26,42.805,6.029,CST-1368DR,5954,8333,15094,0.136,551
2020-10-01T16:24:27,42.805,6.029,CST-1368DR,5953,8333,15096,0.135,551
2020-10-01T16:27:29,42.805,6.029,CST-1368DR,5953,8333,15096,0.135,551
2020-10-01T16:30:30,42.805,6.029,CST-1368DR,5953,8333,15095,0.136,551
2020-10-01T16:33:32,42.805,6.029,CST-1368DR,5953,8331,15092,0.137,551
2020-10-01T16:36:34,42.805,6.029,CST-1368DR,5953,8332,15094,0.136,551
2020-10-01T16:39:35,42.805,6.029,CST-1368DR,5953,8333,15095,0.136,551
2020-10-01T16:42:37,42.805,6.029,CST-1368DR,5953,8333,15096,0.135,551
2020-10-01T16:45:38,42.805,6.029,CST-1368DR,5953,8330,15090,0.137,551
2020-10-01T16:48:40,42.805,6.029,CST-1368DR,5953,8333,15096,0.135,551
2020-10-01T16:51:41,42.805,6.029,CST-1368DR,5953,8333,15096,0.135,551